TimeEST,TemperatureF,Dew PointF,Humidity,Sea Level PressureIn,VisibilityMPH,Wind Direction,Wind SpeedMPH,Gust SpeedMPH,PrecipitationIn,Events,Conditions,WindDirDegrees,DateUTC
12:19 AM,23.0,23.0,100,30.42,8.0,Calm,Calm,-,N/A,,Mostly Cloudy,0,2013-01-27 05:19:00
12:32 AM,24.8,23.0,93,30.42,8.0,Calm,Calm,-,N/A,,Mostly Cloudy,0,2013-01-27 05:32:00
12:52 AM,24.8,24.8,100,30.42,9.0,Calm,Calm,-,N/A,,Overcast,0,2013-01-27 05:52:00
12:55 AM,25.3,24.4,96,30.42,9.0,Calm,Calm,-,N/A,,Overcast,0,2013-01-27 05:55:00
1:09 AM,24.8,24.8,100,30.43,4.0,Calm,Calm,-,N/A,,Overcast,0,2013-01-27 06:09:00
1:15 AM,24.8,24.8,100,30.43,4.0,Calm,Calm,-,N/A,,Overcast,0,2013-01-27 06:15:00
1:18 AM,24.8,24.8,100,30.43,2.5,Calm,Calm,-,N/A,,Overcast,0,2013-01-27 06:18:00
1:19 AM,24.8,24.8,100,30.43,2.0,Calm,Calm,-,N/A,,Overcast,0,2013-01-27 06:19:00
1:20 AM,24.8,24.8,100,30.43,1.8,Calm,Calm,-,N/A,,Overcast,0,2013-01-27 06:20:00
1:21 AM,24.8,24.8,100,30.43,1.5,Calm,Calm,-,N/A,,Overcast,0,2013-01-27 06:21:00
1:22 AM,24.8,24.8,100,30.43,1.2,Calm,Calm,-,N/A,,Overcast,0,2013-01-27 06:22:00
1:23 AM,24.8,24.8,100,30.43,1.0,Calm,Calm,-,N/A,,Mist,0,2013-01-27 06:23:00
1:24 AM,24.8,24.8,100,30.43,0.8,Calm,Calm,-,N/A,,Mist,0,2013-01-27 06:24:00
1:26 AM,26.6,24.8,93,30.43,0.5,Calm,Calm,-,N/A,Fog,Light Freezing Fog,0,2013-01-27 06:26:00
1:27 AM,26.6,24.8,93,30.43,0.5,Calm,Calm,-,N/A,Fog,Light Freezing Drizzle,0,2013-01-27 06:27:00
1:28 AM,26.6,24.8,93,30.44,0.5,Calm,Calm,-,N/A,Fog,Light Freezing Drizzle,0,2013-01-27 06:28:00
1:31 AM,26.6,24.8,93,30.44,0.2,Calm,Calm,-,N/A,Fog,Light Freezing Drizzle,0,2013-01-27 06:31:00
1:52 AM,26.6,24.8,93,30.45,0.2,Calm,Calm,-,N/A,Fog,Light Freezing Fog,0,2013-01-27 06:52:00
1:55 AM,25.9,24.8,96,30.45,0.5,Calm,Calm,-,0.00,Fog,Light Freezing Fog,0,2013-01-27 06:55:00
2:09 AM,26.6,24.8,93,30.45,0.5,Calm,Calm,-,N/A,Fog,Light Freezing Fog,0,2013-01-27 07:09:00
2:25 AM,26.6,24.8,93,30.45,0.8,Calm,Calm,-,N/A,,Mist,0,2013-01-27 07:25:00
2:29 AM,26.6,24.8,93,30.45,0.8,Calm,Calm,-,N/A,,Mist,0,2013-01-27 07:29:00
2:30 AM,26.6,24.8,93,30.45,1.0,Calm,Calm,-,N/A,,Mist,0,2013-01-27 07:30:00
2:34 AM,26.6,24.8,93,30.45,1.2,North,3.5,-,N/A,,Overcast,10,2013-01-27 07:34:00
2:38 AM,26.6,24.8,93,30.45,1.5,Calm,Calm,-,N/A,,Overcast,0,2013-01-27 07:38:00
2:42 AM,24.8,24.8,100,30.45,1.8,NNE,4.6,-,N/A,,Overcast,30,2013-01-27 07:42:00
2:48 AM,24.8,24.8,100,30.46,1.5,NNE,4.6,-,N/A,,Overcast,30,2013-01-27 07:48:00
2:50 AM,24.8,24.8,100,30.46,1.2,NNE,3.5,-,N/A,,Overcast,20,2013-01-27 07:50:00
2:52 AM,24.8,24.8,100,30.46,1.0,North,4.6,-,N/A,,Mist,360,2013-01-27 07:52:00
2:54 AM,24.8,24.8,100,30.46,0.8,North,4.6,-,N/A,,Mist,360,2013-01-27 07:54:00
2:55 AM,25.0,24.1,96,30.46,0.8,North,4.6,-,N/A,,Mist,360,2013-01-27 07:55:00
2:56 AM,24.8,24.8,100,30.46,0.8,North,3.5,-,N/A,,Mist,360,2013-01-27 07:56:00
3:26 AM,24.8,24.8,100,30.47,0.5,Calm,Calm,-,N/A,Fog,Light Freezing Fog,0,2013-01-27 08:26:00
3:27 AM,24.8,24.8,100,30.47,0.8,Calm,Calm,-,N/A,,Mist,0,2013-01-27 08:27:00
3:29 AM,24.8,24.8,100,30.47,0.5,NNE,3.5,-,N/A,Fog,Light Freezing Fog,20,2013-01-27 08:29:00
3:39 AM,24.8,24.8,100,30.47,0.5,Calm,Calm,-,N/A,Fog,Light Freezing Drizzle,0,2013-01-27 08:39:00
3:55 AM,25.7,24.8,96,30.47,0.5,NNE,3.5,-,0.00,Fog,Light Freezing Drizzle,20,2013-01-27 08:55:00
4:14 AM,26.6,24.8,93,30.47,0.8,NNE,3.5,-,N/A,,Light Freezing Drizzle,30,2013-01-27 09:14:00
4:19 AM,26.6,24.8,93,30.47,0.8,North,3.5,-,N/A,,Mist,10,2013-01-27 09:19:00
4:36 AM,26.6,26.6,100,30.47,1.0,NE,3.5,-,N/A,,Mist,40,2013-01-27 09:36:00
4:51 AM,26.6,26.6,100,30.47,1.0,NNE,3.5,-,N/A,,Mist,20,2013-01-27 09:51:00
4:55 AM,27.1,26.4,97,30.48,1.0,NE,3.5,-,0.00,,Mist,40,2013-01-27 09:55:00
5:02 AM,26.6,26.6,100,30.48,1.0,NE,4.6,-,N/A,,Mist,40,2013-01-27 10:02:00
5:08 AM,26.6,26.6,100,30.48,1.0,NNE,4.6,-,N/A,,Mist,30,2013-01-27 10:08:00
5:14 AM,26.6,26.6,100,30.47,1.2,NE,4.6,-,N/A,,Overcast,40,2013-01-27 10:14:00
5:18 AM,26.6,26.6,100,30.48,1.5,NE,4.6,-,N/A,,Overcast,40,2013-01-27 10:18:00
5:23 AM,28.4,26.6,93,30.48,1.8,NE,5.8,-,N/A,,Overcast,50,2013-01-27 10:23:00
5:29 AM,28.4,26.6,93,30.48,1.8,NE,5.8,-,N/A,,Overcast,40,2013-01-27 10:29:00
5:32 AM,28.4,26.6,93,30.48,2.0,NNE,5.8,-,N/A,,Overcast,30,2013-01-27 10:32:00
5:38 AM,28.4,26.6,93,30.48,2.5,NE,5.8,-,N/A,,Overcast,40,2013-01-27 10:38:00
5:41 AM,28.4,26.6,93,30.48,2.5,NNE,4.6,-,N/A,,Overcast,30,2013-01-27 10:41:00
5:45 AM,28.4,26.6,93,30.48,3.0,NE,4.6,-,N/A,,Overcast,50,2013-01-27 10:45:00
5:50 AM,28.4,26.6,93,30.48,2.5,NE,4.6,-,N/A,,Overcast,50,2013-01-27 10:50:00
5:52 AM,28.4,26.6,93,30.48,2.5,NE,3.5,-,N/A,,Overcast,40,2013-01-27 10:52:00
5:55 AM,27.9,27.1,97,30.48,2.5,ENE,4.6,-,N/A,,Overcast,60,2013-01-27 10:55:00
6:00 AM,28.4,26.6,93,30.48,3.0,ENE,5.8,-,N/A,,Overcast,60,2013-01-27 11:00:00
6:01 AM,28.4,26.6,93,30.48,3.0,ENE,5.8,-,N/A,,Overcast,60,2013-01-27 11:01:00
6:07 AM,28.4,26.6,93,30.48,4.0,NE,4.6,-,N/A,,Overcast,50,2013-01-27 11:07:00
6:16 AM,28.4,26.6,93,30.49,5.0,ENE,4.6,-,N/A,,Overcast,60,2013-01-27 11:16:00
6:46 AM,28.4,26.6,93,30.51,6.0,NE,4.6,-,N/A,,Overcast,50,2013-01-27 11:46:00
6:55 AM,28.4,27.5,96,30.51,6.0,ENE,5.8,-,N/A,,Overcast,60,2013-01-27 11:55:00
6:56 AM,28.4,28.4,100,30.51,6.0,NE,4.6,-,N/A,,Overcast,50,2013-01-27 11:56:00
6:58 AM,28.4,28.4,100,30.51,6.0,NE,4.6,-,N/A,,Overcast,50,2013-01-27 11:58:00
7:10 AM,28.4,28.4,100,30.52,7.0,ENE,4.6,-,N/A,,Overcast,60,2013-01-27 12:10:00
7:40 AM,28.4,28.4,100,30.53,7.0,ENE,6.9,-,N/A,,Overcast,70,2013-01-27 12:40:00
7:53 AM,28.4,26.6,93,30.53,7.0,ENE,5.8,-,N/A,,Overcast,60,2013-01-27 12:53:00
7:55 AM,28.2,27.5,97,30.53,7.0,NE,5.8,-,N/A,,Overcast,50,2013-01-27 12:55:00
8:55 AM,28.4,27.7,97,30.57,7.0,ENE,6.9,-,N/A,,Overcast,70,2013-01-27 13:55:00
9:04 AM,28.4,28.4,100,30.57,7.0,ENE,9.2,-,N/A,,Overcast,60,2013-01-27 14:04:00
9:46 AM,28.4,28.4,100,30.59,7.0,ENE,6.9,-,N/A,,Overcast,60,2013-01-27 14:46:00
9:47 AM,28.4,28.4,100,30.59,7.0,ENE,6.9,-,N/A,,Overcast,60,2013-01-27 14:47:00
9:55 AM,29.5,28.8,97,30.60,8.0,ENE,6.9,-,N/A,,Overcast,60,2013-01-27 14:55:00
10:01 AM,30.2,28.4,93,30.60,10.0,ENE,5.8,-,N/A,,Mostly Cloudy,60,2013-01-27 15:01:00
10:08 AM,30.2,28.4,93,30.60,10.0,ENE,6.9,-,N/A,,Mostly Cloudy,70,2013-01-27 15:08:00
10:10 AM,30.2,28.4,93,30.60,10.0,ENE,5.8,-,N/A,,Scattered Clouds,60,2013-01-27 15:10:00
10:28 AM,30.2,28.4,93,30.61,10.0,ENE,5.8,-,N/A,,Partly Cloudy,60,2013-01-27 15:28:00
10:55 AM,32.4,30.2,92,30.61,10.0,NE,9.2,-,N/A,,Scattered Clouds,50,2013-01-27 15:55:00
10:59 AM,33.8,30.2,87,30.61,10.0,NE,9.2,-,N/A,,Mostly Cloudy,50,2013-01-27 15:59:00
11:36 AM,35.6,30.2,81,30.61,10.0,Variable,5.8,-,N/A,,Mostly Cloudy,0,2013-01-27 16:36:00
11:55 AM,36.5,28.8,74,30.60,10.0,ENE,6.9,-,N/A,,Mostly Cloudy,60,2013-01-27 16:55:00
12:21 PM,37.4,26.6,65,30.58,10.0,East,5.8,-,N/A,,Scattered Clouds,80,2013-01-27 17:21:00
12:33 PM,37.4,26.6,65,30.58,10.0,Variable,5.8,-,N/A,,Mostly Cloudy,0,2013-01-27 17:33:00
12:43 PM,39.2,28.4,65,30.58,10.0,NE,6.9,-,N/A,,Scattered Clouds,50,2013-01-27 17:43:00
12:44 PM,39.2,28.4,65,30.58,10.0,NE,6.9,-,N/A,,Mostly Cloudy,50,2013-01-27 17:44:00
12:55 PM,38.1,27.0,64,30.57,10.0,ENE,9.2,-,N/A,,Mostly Cloudy,70,2013-01-27 17:55:00
1:01 PM,37.4,26.6,65,30.57,10.0,ENE,8.1,-,N/A,,Scattered Clouds,70,2013-01-27 18:01:00
1:54 PM,39.2,26.6,61,30.55,10.0,ENE,6.9,-,N/A,,Mostly Cloudy,70,2013-01-27 18:54:00
1:55 PM,39.2,27.5,63,30.54,10.0,Variable,6.9,-,N/A,,Mostly Cloudy,0,2013-01-27 18:55:00
1:59 PM,39.2,28.4,65,30.55,10.0,East,5.8,-,N/A,,Scattered Clouds,90,2013-01-27 18:59:00
2:55 PM,39.6,26.8,60,30.54,10.0,Variable,4.6,-,N/A,,Partly Cloudy,0,2013-01-27 19:55:00
3:55 PM,39.4,27.3,62,30.55,10.0,ENE,4.6,-,N/A,,Clear,60,2013-01-27 20:55:00
4:55 PM,38.8,27.0,62,30.55,10.0,Variable,4.6,-,N/A,,Scattered Clouds,0,2013-01-27 21:55:00
5:55 PM,37.0,26.8,66,30.56,10.0,East,4.6,-,N/A,,Clear,80,2013-01-27 22:55:00
6:55 PM,35.8,27.3,71,30.56,10.0,Calm,Calm,-,N/A,,Mostly Cloudy,0,2013-01-27 23:55:00
7:55 PM,32.9,27.5,81,30.55,10.0,Calm,Calm,-,N/A,,Mostly Cloudy,0,2013-01-28 00:55:00
8:55 PM,30.0,26.8,88,30.55,10.0,Calm,Calm,-,N/A,,Clear,0,2013-01-28 01:55:00
9:55 PM,28.0,25.5,90,30.55,10.0,Calm,Calm,-,N/A,,Partly Cloudy,0,2013-01-28 02:55:00
10:55 PM,30.2,27.5,90,30.54,10.0,Calm,Calm,-,N/A,,Overcast,0,2013-01-28 03:55:00
11:55 PM,32.4,28.8,87,30.53,10.0,Calm,Calm,-,N/A,,Overcast,0,2013-01-28 04:55:00